Weather History for Homer, AK

Change the Weather History Date:

Saturday, March 3, 2012

  Actual Average Record
Temperature  
Mean Temperature 20 °F -  
Max Temperature 26 °F 33 °F 46 °F (1940)
Min Temperature 14 °F 19 °F -17 °F (1956)
Degree Days  
Heating Degree Days 45    
Moisture  
Dew Point 14 °F    
Average Humidity 87    
Maximum Humidity 96    
Minimum Humidity 75    
Precipitation  
Precipitation 0.08 in - - ()
Sea Level Pressure  
Sea Level Pressure 29.70 in    
Wind  
Wind Speed 16 mph (WSW)    
Max Wind Speed 24 mph    
Max Gust Speed 31 mph    
Visibility 3 miles    
Events Fog , Snow    
Averages and records for this station are not official NWS values.
T = Trace of Precipitation, MM = Missing Value Source: NWS Daily Summary

Daily Weather History Graph

Daily Weather History Graph

Search for Another Location

Airport:

Trip Planner

Search our weather history database for the weather conditions in past years. The results will help you decide how hot, cold, wet, or windy it might be!

Date:

Astronomy

Mar. 03, 2012 Rise Set
Actual Time 7:55 AM AKST 6:40 PM AKST
Civil Twilight 7:14 AM AKST 7:22 PM AKST
Nautical Twilight 6:26 AM AKST 8:09 PM AKST
Astronomical Twilight 5:38 AM AKST 8:58 PM AKST
Moon 12:58 PM AKST (3/3) 5:45 AM AKST (3/3)
Length of Visible Light 12h 07m
Length of Day
10h 45m
Waxing Gibbous, 77% of the Moon is Illuminated
Mar 3
Waxing Gibbous
Mar 8
Full
Mar 14
Last Quarter
Mar 22
New
Mar 30
First Quarter

Hourly Weather History & Observations

Time (AKST) Temp. Windchill Dew Point Humidity Pressure Visibility Wind Dir Wind Speed Gust Speed Precip Events Conditions
12:46 AM 24.8 °F 13.4 °F 19.4 °F 80% 29.54 in 10.0 mi WSW 12.7 mph - 0.00 in   Overcast
12:53 AM 26.1 °F 14.5 °F 19.0 °F 75% 29.55 in 10.0 mi WSW 13.8 mph - 0.00 in   Overcast
1:53 AM 24.1 °F 11.5 °F 18.0 °F 77% 29.58 in 10.0 mi WSW 15.0 mph - N/A   Overcast
2:24 AM 24.8 °F 11.5 °F 19.4 °F 80% 29.58 in 6.0 mi WSW 17.3 mph - 0.00 in Snow Light Snow
3:53 AM 21.9 °F 5.8 °F 18.0 °F 85% 29.61 in 3.0 mi SW 23.0 mph 29.9 mph 0.00 in Snow Light Snow
4:12 AM 21.2 °F 5.6 °F 17.6 °F 86% 29.61 in 4.0 mi SW 20.7 mph 29.9 mph 0.00 in Snow Light Snow
4:53 AM 21.0 °F 6.6 °F 16.0 °F 81% 29.63 in 7.0 mi WSW 17.3 mph 26.5 mph 0.00 in   Overcast
5:05 AM 19.4 °F 3.2 °F 15.8 °F 86% 29.63 in 6.0 mi WSW 20.7 mph 28.8 mph N/A   Overcast
5:53 AM 19.0 °F 3.2 °F 14.0 °F 81% 29.65 in 10.0 mi SW 19.6 mph - N/A   Overcast
6:53 AM 19.9 °F 5.7 °F 14.0 °F 78% 29.66 in 10.0 mi SW 16.1 mph - N/A   Overcast
7:53 AM 21.0 °F 7.6 °F 16.0 °F 81% 29.67 in 10.0 mi SW 15.0 mph - N/A   Overcast
8:53 AM 19.9 °F 5.2 °F 16.0 °F 85% 29.69 in 5.0 mi SW 17.3 mph - 0.00 in Snow Light Snow
9:14 AM 19.4 °F 3.2 °F 15.8 °F 86% 29.69 in 3.0 mi SW 20.7 mph 25.3 mph 0.00 in Snow Light Snow
9:53 AM 19.0 °F 2.7 °F 16.0 °F 88% 29.72 in 3.0 mi SW 20.7 mph 24.2 mph 0.00 in Snow Light Snow
10:53 AM 19.0 °F 5.0 °F 15.1 °F 85% 29.74 in 3.0 mi WSW 15.0 mph 20.7 mph 0.00 in Snow Light Snow
11:42 AM 17.6 °F 3.2 °F 15.8 °F 93% 29.74 in 1.0 mi WSW 15.0 mph 23.0 mph 0.00 in Snow Light Snow
11:53 AM 18.0 °F 3.1 °F 14.0 °F 84% 29.75 in 1.0 mi WSW 16.1 mph - 0.00 in Snow Light Snow
12:27 PM 17.6 °F 1.7 °F 14.0 °F 86% 29.75 in 1.0 mi SW 18.4 mph - 0.00 in Snow Light Snow
12:53 PM 17.1 °F 2.0 °F 14.0 °F 88% 29.75 in 0.5 mi SW 16.1 mph 25.3 mph 0.00 in Fog , Snow Snow
1:53 PM 16.0 °F -2.5 °F 14.0 °F 92% 29.75 in 0.5 mi SW 24.2 mph 29.9 mph 0.00 in Fog , Snow Snow
2:53 PM 15.1 °F -2.5 °F 12.9 °F 91% 29.76 in 0.5 mi SW 20.7 mph 28.8 mph 0.00 in Fog , Snow Snow
3:53 PM 15.1 °F -2.9 °F 12.9 °F 91% 29.75 in 0.2 mi SW 21.9 mph - 0.01 in Fog , Snow Snow
4:53 PM 15.1 °F -3.3 °F 12.9 °F 91% 29.74 in 0.2 mi SW 23.0 mph 31.1 mph 0.01 in Fog , Snow Snow
5:13 PM 15.8 °F -2.7 °F 14.0 °F 93% 29.73 in 0.2 mi SW 24.2 mph - 0.00 in Fog , Snow Snow
5:53 PM 14.0 °F -3.9 °F 12.0 °F 92% 29.73 in 0.5 mi SW 20.7 mph - 0.01 in Fog , Snow Light Snow
6:53 PM 14.0 °F -3.4 °F 12.9 °F 95% 29.73 in 0.2 mi WSW 19.6 mph - 0.01 in Fog , Snow Heavy Snow
7:07 PM 14.0 °F -3.0 °F 12.2 °F 93% 29.72 in 1.0 mi SW 18.4 mph - 0.01 in Snow Light Snow
7:45 PM 14.0 °F 2.9 °F 10.4 °F 86% 29.72 in 2.5 mi WSW 8.1 mph - 0.01 in Snow Light Snow
7:53 PM 14.0 °F 1.2 °F 10.0 °F 84% 29.73 in 2.0 mi WSW 10.4 mph - 0.01 in Snow Light Snow
8:48 PM 14.0 °F 0.5 °F 10.4 °F 86% 29.72 in 3.0 mi WSW 11.5 mph - 0.00 in Snow Light Snow
8:53 PM 14.0 °F 1.2 °F 10.9 °F 88% 29.73 in 2.0 mi WSW 10.4 mph - 0.00 in Snow Light Snow
9:13 PM 14.0 °F 2.0 °F 10.4 °F 86% 29.72 in 1.2 mi WSW 9.2 mph - 0.01 in Snow Light Snow
9:53 PM 14.0 °F 1.2 °F 12.0 °F 92% 29.73 in 1.5 mi WSW 10.4 mph - 0.01 in Snow Light Snow
10:11 PM 14.0 °F 2.9 °F 12.2 °F 93% 29.72 in 1.8 mi WSW 8.1 mph - 0.00 in Snow Light Snow
10:19 PM 14.0 °F 3.9 °F 12.2 °F 93% 29.72 in 2.5 mi West 6.9 mph - 0.00 in Snow Light Snow
10:43 PM 15.8 °F 4.2 °F 12.2 °F 86% 29.73 in 1.2 mi WSW 9.2 mph - 0.01 in Snow Light Snow
10:50 PM 15.8 °F 2.1 °F 12.2 °F 86% 29.73 in 1.2 mi WSW 12.7 mph - 0.01 in Snow Light Snow
10:53 PM 15.1 °F 1.1 °F 12.9 °F 91% 29.73 in 1.2 mi WSW 12.7 mph - 0.01 in Snow Light Snow
11:46 PM 17.6 °F 10.7 °F 15.8 °F 93% 29.72 in 2.0 mi Variable 4.6 mph 21.9 mph 0.01 in Snow Light Snow
11:53 PM 16.0 °F 10.4 °F 15.1 °F 96% 29.73 in 3.0 mi NNW 3.5 mph - 0.01 in Snow Light Snow